User: anonymous   Login
Location: Hancock Field Station
(44.9202°N, 120.4259°W)
Time: 20:05:29
(UTC-07:00)
Language:

Nadezhda 4 Rocket - Orbit

View from above orbital plane
View from above orbital plane
View from above satellite
View from above satellite

Ground track
Ground track

The orbit data is extracted from the following two-line orbital elements,

1 23180U 94041B   15239.92300962 +.00000128 +00000-0 +11302-3 0  9994
2 23180 082.9429 061.6031 0027572 273.1873 194.5552 13.77904343061853
Epoch (UTC): 27 August 2015 22:09:08
Eccentricity: 0.0027572
inclination: 82.9429°
perigee height: 951 km
apogee height: 991 km
right ascension of ascending node: 61.6031°
argument of perigee: 273.1873°
revolutions per day: 13.77904343
mean anomaly at epoch: 194.5552°
orbit number at epoch: 6185

The dashed part of the orbit path shows where the satellite is in the earth's shadow,  

DLR